Location: Melbourne
(37.8170°S, 144.9670°E)
Time: 01:59:42
(UTC+10:00)

deb Explorer IX - All Passes

Search period start: 17 April 2014 00:00
Search period end: 27 April 2014 00:00
Orbit: 550 x 1234 km, 38.8° (Epoch: 16 April)

Date Brightness Start Highest point End Pass type
(mag) Time Alt. Az. Time Alt. Az. Time Alt. Az.
17 Apr - 00:11:01 10° W 00:17:02 65° NNW 00:21:58 10° ENE night (unlit)
17 Apr - 02:01:09 10° W 02:04:47 19° NW 02:08:03 10° N night (unlit)
17 Apr - 16:56:36 10° N 17:01:05 16° NE 17:05:25 10° ENE daylight
17 Apr - 18:41:59 10° NW 18:49:25 46° NNE 18:56:03 10° E visible
17 Apr - 20:30:44 10° WNW 20:38:19 87° NNE 20:44:41 10° E visible
17 Apr - 22:20:26 10° W 22:27:23 84° S 22:33:03 10° E visible
18 Apr - 00:10:01 10° W 00:15:59 54° NNW 00:20:54 10° NE night (unlit)
18 Apr - 02:00:51 10° WNW 02:03:33 14° NW 02:06:03 10° N night (unlit)
18 Apr - 16:54:09 10° N 16:59:49 21° NE 17:05:15 10° E daylight
18 Apr - 18:40:35 10° NW 18:48:18 55° NNE 18:55:10 10° E visible
18 Apr - 20:29:40 10° W 20:37:18 88° S 20:43:45 10° E visible
18 Apr - 22:19:24 10° W 22:26:25 89° S 22:32:08 10° E visible
19 Apr - 00:09:01 10° W 00:14:54 44° NNW 00:19:45 10° NE night (unlit)
19 Apr - 02:02:01 10° NW 02:02:16 10° NW 02:02:31 10° NW night (unlit)
19 Apr - 16:52:06 10° NNW 16:58:34 27° NE 17:04:45 10° E daylight
19 Apr - 18:39:18 10° WNW 18:47:10 65° NNE 18:54:13 10° ESE visible
19 Apr - 20:28:37 10° W 20:36:18 84° S 20:42:49 10° E visible
19 Apr - 22:18:20 10° W 22:25:25 85° NNW 22:31:12 10° ENE visible
20 Apr - 00:08:04 10° W 00:13:44 36° NNW 00:18:29 10° NNE night (unlit)
20 Apr - 16:50:18 10° NNW 16:57:18 34° NE 17:04:02 10° E daylight
20 Apr - 18:38:04 10° WNW 18:46:04 74° NNE 18:53:15 10° ESE visible
20 Apr - 20:27:34 10° W 20:35:18 83° S 20:41:52 10° E visible
20 Apr - 22:17:16 10° WSW 22:24:23 77° NNW 22:30:12 10° ENE visible
21 Apr - 00:07:11 10° W 00:12:31 29° NW 00:17:04 10° NNE night (unlit)
21 Apr - 15:04:51 10° NNE 15:07:58 13° NE 15:11:05 10° ENE daylight
21 Apr - 16:48:40 10° NW 16:56:04 41° NNE 17:03:11 10° E daylight
21 Apr - 18:36:54 10° WNW 18:44:58 81° NNE 18:52:15 10° ESE visible
21 Apr - 20:26:30 10° W 20:34:17 83° S 20:40:55 10° E visible
21 Apr - 22:16:11 10° WSW 22:23:18 67° NNW 22:29:09 10° ENE visible
22 Apr - 00:06:25 10° W 00:11:15 23° NW 00:15:28 10° NNE night (unlit)
22 Apr - 15:01:50 10° N 15:06:35 17° NE 15:11:23 10° E daylight
22 Apr - 16:47:10 10° NW 16:54:50 49° NNE 17:02:15 10° E daylight
22 Apr - 18:35:47 10° WNW 18:43:53 88° NNE 18:51:14 10° E visible
22 Apr - 20:25:26 10° W 20:33:15 85° S 20:39:57 10° E visible
22 Apr - 22:15:06 10° WSW 22:22:10 58° NNW 22:28:02 10° NE visible
23 Apr - 00:05:50 10° W 00:09:55 18° NW 00:13:35 10° N night (unlit)
23 Apr - 14:59:30 10° N 15:05:13 22° NE 15:11:03 10° E daylight
23 Apr - 16:45:46 10° NW 16:53:37 58° NNE 17:01:15 10° ESE daylight
23 Apr - 18:34:41 10° W 18:42:49 87° S 18:50:13 10° E visible
23 Apr - 20:24:20 10° W 20:32:12 89° S 20:38:57 10° E visible
23 Apr - 22:14:02 10° W 22:20:59 49° NNW 22:26:48 10° NE visible
24 Apr - 00:05:40 10° WNW 00:08:33 13° NW 00:11:14 10° NNW night (unlit)
24 Apr - 14:57:30 10° NNW 15:03:51 28° NE 15:10:24 10° E daylight
24 Apr - 16:44:28 10° WNW 16:52:25 67° NNE 17:00:13 10° ESE daylight
24 Apr - 18:33:35 10° W 18:41:44 84° S 18:49:12 10° E visible
24 Apr - 20:23:13 10° W 20:31:07 85° NNW 20:37:55 10° ENE visible
24 Apr - 22:12:59 10° W 22:19:44 40° NNW 22:25:28 10° NE visible
25 Apr - 14:55:43 10° NNW 15:02:30 34° NE 15:09:35 10° E daylight
25 Apr - 16:43:14 10° WNW 16:51:14 75° NNE 16:59:09 10° ESE daylight
25 Apr - 18:32:30 10° W 18:40:39 83° S 18:48:10 10° E visible
25 Apr - 20:22:06 10° WSW 20:30:00 78° NNW 20:36:51 10° ENE visible
25 Apr - 22:12:00 10° W 22:18:26 33° NW 22:23:59 10° NNE visible
26 Apr - 13:10:43 10° NNE 13:13:20 12° NE 13:16:01 10° ENE daylight
26 Apr - 14:54:06 10° NW 15:01:11 42° NNE 15:08:38 10° E daylight
26 Apr - 16:42:04 10° WNW 16:50:05 82° NNE 16:58:03 10° ESE daylight
26 Apr - 18:31:24 10° W 18:39:34 84° S 18:47:07 10° E visible
26 Apr - 20:20:58 10° WSW 20:28:50 69° NNW 20:35:42 10° ENE visible
26 Apr - 22:11:07 10° W 22:17:05 27° NW 22:22:20 10° NNE visible
